カタログに戻る

STARLINK-1527

運用中通信VLEO
NORAD 46048·PAYLOAD·🇺🇸 United States

打ち上げ Aug 7, 2020 から Cape Canaveral Space Force Station

Loading…

次のパス (今後24時間)

TLE

最新Source: CelesTrak SupGP

元期: Sep 15, 2026, 01:56 UTC

1 46048C 20055X   26258.08104167  .00040851  00000+0  13134-2 0  2583
2 46048  53.1571 312.6119 0001311  96.9032  46.4161 15.31687161    16

AllMySatでSTARLINK-1527をリアルタイム追跡

Download on the App Store